Regional Weather Roundup
Issued by NWS

Home | Current Version | Previous Version | Text Only | Print | Product List | Glossary Off
Versions: 1 2 3 4 5 6 7 8 9 10 11 12 13 14 15 16 17 18 19 20 21 22 23 24 25 26 27 28 29 30 31 32 33 34 35 36 37 38 39 40 41 42 43 44 45 46 47 48 49 50

000
ASUS45 KSLC 221210
RWRUT

UTAH REGIONAL WEATHER ROUNDUP
NATIONAL WEATHER SERVICE SALT LAKE CITY UT
600 AM MDT TUE JUL 22 2014

UTZ001>011-023>025-221300-

NORTHERN UTAH

CITY           SKY/WX    TMP DP  RH WIND       PRES   REMARKS
HILL AFB       CLEAR     68  40  36 E20       30.20S
LOGAN          NOT AVBL
OGDEN          CLEAR     68  39  34 S9        30.18R
PROVO AIRPORT  CLEAR     61  37  41 E6        30.22S
SALT LAKE CITY MOCLDY    64  46  52 S6        30.17R
VERNAL         CLEAR     60  33  36 CALM      30.27R
WENDOVER       CLEAR     66  48  52 CALM      30.19R
HEBER CITY     CLEAR     46  37  71 SE5       30.31R
WEST JORDAN    PTCLDY    68  41  37 CALM      30.21R

$$

UTZ012>022-026-027-221300-

SOUTHERN UTAH

CITY           SKY/WX    TMP DP  RH WIND       PRES   REMARKS
BRYCE CANYON   PTCLDY    42  27  55 W9        30.46R
CEDAR CITY     PTCLDY    52  29  41 NE3       30.28R
MILFORD        CLEAR     58  32  37 S8        30.24R
MOAB/CYNLANDS  CLEAR     65  24  21 CALM      30.18R
PRICE          CLEAR     61  22  22 N7        30.30R
ST GEORGE      SUNNY     72  25  17 CALM      30.12R
KANAB            N/A     54  32  43 NE6       30.29R

$$

REGIONAL REPORTS     COLORADO/ARIZONA

CITY           SKY/WX    TMP DP  RH WIND       PRES   REMARKS
CRAIG, CO      CLEAR     38  38 100 CALM      30.37R
GRAND JUNCTION CLEAR     63  27  25 E6        30.24R
RIFLE          CLEAR     55  31  39 E6        30.33R
MONTROSE       CLEAR     60  35  39 S3        30.34R
CORTEZ         CLEAR     48  33  56 E3        30.32R
PAGE, AZ       CLEAR     72  27  18 SE3       30.19R
GRAND CANYON   CLEAR     46  34  62 CALM      30.38R
KINGMAN        CLEAR     73  39  29 VRB3      30.12R
FLAGSTAFF      CLEAR     51  35  54 CALM      30.40R

$$

REGIONAL REPORTS    NEVADA/IDAHO/WYOMING

CITY           SKY/WX    TMP DP  RH WIND       PRES   REMARKS
LAS VEGAS, NV  CLEAR     81  34  18 S7        29.96S
ELY            CLEAR     50  33  52 CALM      30.32R
ELKO           CLEAR     54  50  86 CALM      30.24R
POCATELLO, ID  CLEAR     58  52  80 SE5       30.23R
BURLEY         CLEAR     55  53  93 NE3       30.19R
EVANSTON, WY   CLEAR     56  35  45 E8        30.39R
ROCK SPRINGS   CLEAR     60  32  34 S5        30.38R

$$


USA.gov is the U.S. government's official web portal to all federal, state and local government web resources and services.